Theta_e
293 294 294 294 295 296 296 297 298 299 300 303 307 311 316 321 322 322 322 322 321 320 320 319 319 320 319 318 318 317 315 314 310 313 316 313 306 303 298 297 296 297 298
290 291 292 292 292 292 292 293 294 294 296 298 300 302 306 311 315 319 320 321 321 320 320 319 319 319 318 319 318 317 316 316 313 310 313 307 307 301 301 296 294 295 295
288 288 289 288 288 289 290 289 289 290 291 294 295 297 299 302 305 310 314 317 319 320 320 320 320 319 318 318 318 317 317 316 315 312 312 299 295 294 292 291 291 291 293
285 285 286 284 286 287 285 284 285 286 288 290 292 293 295 297 300 303 307 310 313 316 319 320 320 320 319 319 318 317 316 315 314 313 311 298 292 289 289 287 287 287 289
282 283 282 283 284 281 281 281 282 283 284 286 288 290 292 293 296 298 298 299 301 304 309 315 318 315 305 312 318 317 316 314 312 310 309 290 288 286 290 290 293 288 286
280 280 279 280 278 278 278 278 279 279 281 283 285 287 287 290 292 292 293 294 296 297 300 306 311 302 303 301 302 304 313 315 312 310 307 296 295 292 291 291 289 285 286
279 276 276 275 275 275 276 276 276 277 279 281 283 284 284 286 290 291 290 291 292 294 296 299 303 308 301 312 307 301 302 303 308 315 307 302 302 296 295 290 291 289 288
274 273 274 273 273 273 274 274 274 276 277 277 279 280 281 284 288 289 289 289 290 292 293 295 297 301 306 304 309 309 308 307 307 307 309 310 306 299 298 296 292 289 284
271 271 272 271 271 271 271 272 273 273 273 275 277 279 280 282 286 288 288 288 288 288 290 292 293 295 297 298 303 304 304 303 297 299 302 303 300 298 297 290 287 287 283
270 270 270 270 270 270 271 271 271 272 274 275 274 275 277 278 283 286 288 287 287 287 289 290 289 293 294 295 295 298 297 300 293 289 288 293 296 295 293 294 290 289 284
270 269 269 269 269 270 270 270 270 270 271 271 272 273 275 278 280 284 287 286 286 287 287 288 290 291 292 294 295 294 296 298 293 291 291 290 288 289 291 292 291 293 288
267 267 267 268 269 269 268 269 269 270 269 269 270 272 274 276 279 281 283 284 286 286 286 288 288 290 292 293 293 294 295 295 291 290 288 288 288 288 288 289 289 290 288
264 265 266 267 268 268 268 268 269 270 270 270 271 272 273 276 277 281 282 283 285 284 286 287 289 290 291 291 291 293 291 292 290 288 289 289 289 290 287 285 283 282 283
263 264 266 266 266 268 269 269 269 269 269 271 271 271 272 273 275 277 276 278 280 282 285 286 288 289 290 290 288 290 290 291 290 289 290 290 288 286 285 285 283 282 281
263 264 264 265 266 266 267 268 269 270 272 271 271 271 270 270 273 277 277 276 277 280 282 285 286 286 286 286 287 288 289 289 288 289 289 287 286 285 285 284 284 282 281
261 262 263 264 264 265 265 265 270 271 273 273 274 273 272 274 276 276 276 277 277 278 280 284 285 285 285 286 286 286 288 288 288 288 288 287 286 284 284 282 283 282 282
258 260 262 263 262 262 263 262 261 265 269 270 271 272 272 274 274 274 274 274 273 272 268 268 268 271 279 286 287 287 287 288 288 287 287 287 286 285 284 282 282 282 281
255 259 260 260 260 261 261 261 261 261 260 261 266 269 269 272 272 272 272 268 264 266 265 265 265 267 269 270 283 287 287 287 287 286 287 287 286 285 283 282 282 281 281
256 258 258 258 259 259 259 259 259 259 259 259 260 263 263 269 268 268 268 262 261 262 263 263 264 265 266 268 270 279 287 287 287 286 286 286 285 285 284 283 282 281 280
253 256 255 255 255 256 256 256 256 257 257 256 257 257 260 261 259 259 260 260 260 261 262 262 263 264 264 265 266 269 272 285 286 285 285 285 285 284 284 283 281 280 279
250 250 253 251 250 251 252 253 254 254 254 254 255 256 265 257 257 257 258 258 258 259 260 261 262 263 263 263 264 265 267 271 281 285 285 285 285 283 283 283 281 280 277
245 246 247 247 250 252 252 252 252 252 252 252 253 254 261 254 255 255 255 255 256 257 259 260 261 261 262 262 263 264 264 266 268 272 280 282 282 282 280 279 277 276 272
245 247 248 248 249 251 251 250 250 250 250 251 251 251 252 252 252 253 253 254 254 255 256 257 258 260 260 261 263 264 264 265 266 269 272 275 276 277 277 275 274 272 271
245 246 246 246 248 249 248 248 249 249 249 249 249 250 250 250 250 251 251 252 252 252 254 255 256 257 257 259 261 262 265 267 267 267 268 271 272 273 273 272 272 272 270
245 246 246 247 246 246 246 246 247 245 247 248 248 249 249 249 249 250 250 251 251 250 251 253 254 255 256 257 258 258 261 264 267 266 267 268 268 270 270 270 270 269 269
245 245 244 245 245 244 243 245 246 246 246 247 247 247 248 248 248 248 249 249 249 248 249 251 251 253 254 256 256 259 262 265 269 266 265 266 266 266 267 267 267 267 266
Wind_Speed
14 12 12 11 11 10 10 11 12 12 12 13 12 12 11 10 11 12 13 13 15 14 15 14 17 16 12 12 12 12 13 12 16 11 10 8 7 6 4 4 5 6 7
11 11 12 12 12 13 13 13 13 13 13 13 13 12 11 12 12 12 12 11 13 14 15 16 18 12 17 16 12 15 14 15 13 18 11 7 10 6 5 6 4 5 6
13 13 12 14 13 13 13 14 14 14 13 12 13 12 12 12 13 12 13 14 14 15 15 16 16 16 16 13 14 14 13 13 14 14 12 3 3 3 3 2 4 4 4
12 12 12 14 14 13 14 14 14 14 14 14 14 14 13 13 13 12 13 15 15 15 15 15 16 17 17 16 15 16 16 14 13 14 12 4 3 3 2 4 3 3 6
11 11 15 14 13 15 14 14 14 13 13 14 15 14 13 12 10 13 14 15 16 17 17 17 16 16 20 19 13 14 15 14 13 12 12 3 5 4 8 5 8 4 4
13 13 13 13 15 14 15 16 16 15 15 14 13 14 16 11 20 22 18 15 16 16 16 16 17 13 16 20 21 24 23 16 17 13 10 8 9 6 6 7 6 4 4
12 14 14 14 15 15 15 16 16 16 16 16 15 16 17 17 23 24 24 15 17 17 16 17 17 13 10 14 19 22 27 27 27 18 15 14 11 12 9 8 9 8 6
12 12 13 13 15 15 16 16 16 16 17 17 17 17 17 14 25 28 28 20 17 18 18 18 18 19 17 11 15 16 16 16 16 14 15 15 16 14 17 15 14 6 5
13 14 14 13 13 14 15 15 15 15 15 15 15 18 19 18 27 28 26 20 18 19 17 18 18 18 21 19 16 17 17 16 6 15 20 18 16 19 16 9 8 10 5
13 13 13 14 13 12 13 14 14 14 16 15 18 17 19 20 28 29 25 15 19 16 18 18 19 18 21 20 17 16 17 16 8 6 4 6 12 15 26 16 13 12 6
11 11 11 11 11 10 11 11 12 13 14 13 15 15 17 16 19 32 30 16 16 17 16 16 14 19 21 22 21 17 19 14 10 11 9 7 5 7 10 10 12 12 9
9 9 9 9 9 10 11 11 12 12 13 13 15 14 12 14 22 26 32 31 30 18 18 16 16 25 27 26 21 24 25 21 9 8 7 8 8 8 9 10 10 6 3
9 10 11 11 10 10 10 11 10 11 12 13 13 15 15 13 13 27 28 33 33 21 17 23 34 31 30 25 24 24 20 12 10 9 10 10 10 9 6 6 5 8 5
12 12 11 11 12 11 9 9 9 11 12 13 14 15 15 14 14 14 16 17 25 22 23 19 23 27 27 23 17 15 10 10 10 11 10 9 7 7 9 8 7 8 5
11 11 11 10 11 10 9 9 8 8 13 13 13 14 16 16 17 31 28 19 18 22 26 16 14 13 13 12 10 11 9 9 9 9 7 7 8 8 8 9 7 9 7
11 9 9 9 9 9 9 8 13 16 21 23 25 22 14 27 37 37 37 37 35 35 16 13 12 12 14 13 11 10 9 12 10 9 9 9 9 10 10 9 8 11 11
8 9 8 8 8 8 9 10 13 12 19 22 25 27 30 32 36 35 36 36 32 26 14 15 14 17 20 15 12 11 11 9 11 10 10 10 10 10 12 11 11 11 10
7 9 7 7 7 8 8 9 9 11 12 10 17 24 28 33 34 34 35 27 19 21 14 14 15 16 17 17 19 10 10 9 9 10 11 10 10 11 11 12 12 13 12
7 6 7 7 7 8 7 8 8 9 9 10 10 15 19 30 30 30 32 13 14 14 15 15 14 15 16 17 16 20 11 10 10 9 10 10 10 11 12 12 12 17 16
5 10 7 6 7 7 7 7 8 8 9 10 10 12 14 18 15 15 14 14 14 14 14 15 15 14 15 16 17 17 19 12 10 9 9 9 10 10 11 11 11 12 12
4 4 7 5 4 4 6 7 7 8 8 9 9 11 28 13 12 12 12 13 13 14 15 15 15 15 15 16 16 17 17 17 17 9 8 8 8 8 9 8 9 10 11
3 4 3 4 4 5 6 6 6 7 8 9 10 11 25 9 10 11 12 11 12 13 13 14 13 13 14 15 16 16 16 17 16 16 13 4 6 7 6 8 9 10 11
3 4 3 3 3 6 6 6 6 7 8 8 9 10 10 10 11 11 12 12 12 12 13 13 14 13 14 15 14 15 15 16 15 14 12 9 4 3 6 8 10 11 12
2 3 3 3 3 5 5 7 7 7 8 8 8 9 9 10 11 12 11 12 12 13 13 13 13 17 17 16 14 16 15 16 13 14 16 9 6 2 3 6 8 11 11
3 3 3 4 5 5 7 6 6 5 7 7 8 8 9 9 10 10 11 11 12 13 15 14 12 17 19 24 22 25 25 30 14 18 12 11 8 6 2 4 7 8 11
3 3 3 4 4 4 3 6 7 8 8 8 8 9 9 10 10 10 11 11 12 13 15 12 15 20 23 17 20 27 27 27 20 16 12 9 7 6 4 4 7 8 11
Wind_Direction
16 12 17 15 10 11 7 5 355 346 349 341 331 318 313 286 262 255 256 253 246 243 242 238 237 235 232 229 225 222 225 224 246 246 242 213 204 209 201 195 169 184 193
8 7 12 11 6 4 4 358 352 346 346 333 325 323 323 317 311 292 271 256 256 256 249 239 243 239 238 235 229 227 224 221 231 248 233 207 209 208 215 175 178 187 178
1 7 11 8 4 1 356 348 346 340 331 325 324 321 324 318 316 306 297 289 271 258 255 255 250 242 243 237 234 236 232 231 229 235 239 154 159 155 136 169 167 183 188
1 2 9 1 358 356 346 343 340 335 328 329 326 323 318 313 308 305 311 308 297 283 272 259 258 259 249 240 239 238 238 235 232 234 229 200 163 163 137 150 198 169 193
358 7 8 353 355 344 338 339 335 334 331 328 320 317 317 315 311 323 316 308 303 298 290 284 269 253 250 245 245 242 243 241 236 232 230 175 175 166 186 180 202 165 198
352 11 358 355 342 341 338 334 334 334 333 329 320 320 320 315 317 316 312 308 301 293 291 285 277 266 251 243 242 250 249 244 239 240 221 212 205 194 157 180 162 150 202
12 352 357 347 339 338 334 332 333 332 326 325 324 324 319 315 316 315 316 307 302 293 290 288 284 275 263 255 245 242 248 245 244 237 227 213 210 195 175 175 192 186 187
353 347 341 345 338 334 334 334 331 329 329 325 321 320 314 310 313 314 313 306 300 294 290 290 289 287 281 250 259 258 249 246 241 243 241 232 219 190 191 195 188 168 61
355 349 341 338 328 335 330 327 325 323 322 318 316 316 314 312 310 308 310 307 297 295 293 292 289 288 290 296 263 259 259 252 255 251 248 245 210 182 175 137 153 164 161
346 335 337 337 334 327 324 327 323 322 321 323 322 310 309 313 313 311 307 303 298 298 295 293 287 279 286 281 279 276 266 263 239 251 251 219 190 186 170 181 168 186 148
335 331 331 331 326 329 326 323 327 327 326 319 316 320 319 320 321 321 321 315 304 300 296 297 296 291 289 287 275 271 267 278 239 230 233 219 193 185 185 189 186 181 182
320 319 326 331 339 344 339 334 330 325 324 326 323 320 319 316 316 319 318 311 307 301 295 294 295 297 294 289 287 275 274 271 245 222 216 208 204 191 194 189 189 190 167
329 345 347 342 338 336 339 334 337 337 341 335 334 329 326 324 317 315 315 324 314 300 289 289 289 286 284 284 280 271 264 258 234 220 221 215 204 194 169 142 103 100 85
345 345 344 338 338 338 340 338 340 347 346 343 338 333 332 334 333 334 322 316 309 305 293 288 284 283 277 276 283 275 261 248 228 229 227 217 183 165 174 169 165 164 136
344 342 346 340 330 329 333 335 335 349 350 346 339 337 333 337 333 336 333 328 320 309 303 287 281 286 284 280 274 274 261 252 232 229 223 197 194 181 188 173 177 170 173
339 340 329 324 327 323 321 316 330 354 358 354 346 344 340 332 340 341 341 339 336 337 323 300 286 286 286 281 269 267 263 255 240 234 224 210 200 195 182 184 178 187 182
320 309 321 319 320 327 328 333 331 341 2 355 348 344 346 341 345 347 347 348 346 356 360 346 340 338 330 291 273 258 252 242 235 228 226 218 204 197 189 186 191 188 188
307 303 316 319 320 327 332 333 328 333 341 346 346 340 344 345 346 351 353 349 350 358 358 348 339 330 326 327 308 264 255 246 234 229 226 222 213 202 196 196 196 194 186
323 322 330 323 327 329 331 333 326 329 336 331 340 338 337 345 347 351 355 355 348 346 344 343 339 336 332 331 324 321 264 251 241 227 227 223 217 209 212 206 198 197 184
316 323 328 325 330 335 333 332 332 336 340 338 344 340 332 350 349 345 345 345 344 341 339 337 337 338 338 336 333 330 333 284 256 239 233 226 221 215 215 208 200 186 184
305 309 316 322 324 313 322 329 334 337 339 336 333 335 343 350 334 336 340 341 339 335 334 335 335 337 338 338 340 340 338 334 327 258 242 233 221 213 210 202 190 180 167
308 303 317 322 307 328 330 322 330 332 332 331 328 330 340 339 332 334 332 334 331 331 330 330 331 338 338 338 338 339 341 339 336 334 320 259 215 207 184 172 164 160 151
321 325 327 300 306 323 321 326 333 331 328 326 324 324 331 332 330 327 328 326 329 328 326 331 329 335 335 336 336 337 337 339 332 326 325 325 314 179 170 165 158 157 163
320 291 286 288 319 322 315 331 328 320 316 315 318 319 320 320 319 319 320 322 325 326 324 328 327 332 331 334 335 336 333 333 339 335 333 332 332 353 133 150 156 158 148
297 309 308 317 319 314 321 319 310 297 304 309 312 311 311 310 311 313 315 319 322 324 323 325 325 327 331 329 332 332 333 333 347 348 339 342 359 2 38 127 133 136 142
291 294 292 299 300 300 297 309 311 311 309 308 305 303 304 306 306 309 312 315 321 318 317 318 318 323 326 326 329 329 332 333 342 359 346 344 354 11 28 77 109 124 128